Regional Weather Roundup
Issued by NWS

Home | Current Version | Previous Version | Text Only | Print | Product List | Glossary On
Versions: 1 2 3 4 5 6 7 8 9 10 11 12 13 14 15 16 17 18 19 20 21 22 23 24 25 26 27 28 29 30 31 32 33 34 35 36 37 38 39 40 41 42 43 44 45 46 47 48 49 50
456
ASUS44 KFWD 260615
RWRTX
NORTH TEXAS HOURLY WEATHER ROUNDUP
NATIONAL WEATHER SERVICE FORT WORTH TX
100 AM CDT SUN MAR 26 2017

NOTE: "FAIR" INDICATES FEW OR NO CLOUDS BELOW 12,000 FEET WITH NO
SIGNIFICANT WEATHER AND/OR OBSTRUCTIONS TO VISIBILITY.

TXZ118-119-260700-
DALLAS/FORT WORTH METROPLEX

CITY           SKY/WX    TMP DP  RH WIND       PRES   REMARKS
DFW AIRPORT    CLEAR     58  47  66 SE5       29.89F
6HR MIN TEMP:  57; 6HR MAX TEMP:  73;

DALLAS LOVE    CLEAR     59  46  62 SE7       29.91F
6HR MIN TEMP:  58; 6HR MAX TEMP:  72;

FTW MEACHAM    CLEAR     59  46  62 NE7       29.89F
6HR MIN TEMP:  59; 6HR MAX TEMP:  72;

DAL-EXECUTIVE  CLEAR     55  48  77 E6        29.90F
6HR MIN TEMP:  53; 6HR MAX TEMP:  70;

FTW-ALLIANCE   CLEAR     56  47  71 SE3       29.90F
6HR MIN TEMP:  50; 6HR MAX TEMP:  71;

FTW-NAS-JRB    CLEAR     57  47  69 CALM      29.90F
6HR MIN TEMP:  57; 6HR MAX TEMP:  72;

FTW-SPINKS     CLEAR     49  46  89 CALM      29.92S
6HR MIN TEMP:  48; 6HR MAX TEMP:  70;

ARLINGTON      CLEAR     50  47  89 CALM      29.90F
6HR MIN TEMP:  49; 6HR MAX TEMP:  70;

GRAND PRAIRIE  CLEAR     57  46  66 CALM      29.92F
6HR MIN TEMP:  55; 6HR MAX TEMP:  72;

ADDISON        CLEAR     59  46  62 E6        29.92F
6HR MIN TEMP:  59; 6HR MAX TEMP:  69;

MESQUITE       CLEAR     52  46  81 SE3       29.93S
6HR MIN TEMP:  51; 6HR MAX TEMP:  70;

LANCASTER      CLEAR     49  46  88 CALM      29.93F
6HR MIN TEMP:  47; 6HR MAX TEMP:  69;

$$

TXZ091>094-102>105-117-120-121-131>134-260700-
NORTH CENTRAL TEXAS

CITY           SKY/WX    TMP DP  RH WIND       PRES   REMARKS
SHRMAN/DENISON CLEAR     49  45  86 CALM      29.92S
6HR MIN TEMP:  49; 6HR MAX TEMP:  64;

GAINESVILLE    CLEAR     50  44  79 CALM      29.92F
6HR MIN TEMP:  50; 6HR MAX TEMP:  65;

BOWIE          CLEAR     49  45  85 CALM      29.90S
6HR MIN TEMP:  49; 6HR MAX TEMP:  67;

BRIDGEPORT     CLEAR     56  44  64 SE6       29.92S
6HR MIN TEMP:  47; 6HR MAX TEMP:  69;

DECATUR        CLEAR     55  44  66 SE6       29.91S
6HR MIN TEMP:  55; 6HR MAX TEMP:  68;

DENTON         PTCLDY    51  47  86 SE3       29.90F
6HR MIN TEMP:  50; 6HR MAX TEMP:  68;

MCKINNEY       CLEAR     52  47  83 CALM      29.92F
6HR MIN TEMP:  49; 6HR MAX TEMP:  68;

BONHAM         CLEAR     48  46  93 E3        29.92S
GREENVILLE     CLEAR     46  45  93 CALM      29.92F
ROCKWALL       CLEAR     56  48  72 E3        29.92F
6HR MIN TEMP:  56; 6HR MAX TEMP:  69;

TERRELL        CLEAR     51  47  86 CALM      29.93F
6HR MIN TEMP:  51; 6HR MAX TEMP:  68;

WAXAHACHIE     CLEAR     54  47  78 CALM      29.93F
6HR MIN TEMP:  51; 6HR MAX TEMP:  69;

CLEBURNE       CLEAR     55  46  71 SE8       29.92F
GRANBURY       CLEAR     52  44  76 CALM      29.91F
6HR MIN TEMP:  51; 6HR MAX TEMP:  73;

$$

TXZ083>090-098>101-113>116-127>130-139>142-154-155-260700-
WESTERN NORTH TEXAS

CITY           SKY/WX    TMP DP  RH WIND       PRES   REMARKS
WICHITA FALLS  PTCLDY    52  42  69 SE3       29.87F
6HR MIN TEMP:  51; 6HR MAX TEMP:  68;

WF-KICKAPOO    PTCLDY    50  45  81 E9        29.89S
6HR MIN TEMP:  50; 6HR MAX TEMP:  69;

VERNON         PTCLDY    56  37  49 SE7       29.87F
6HR MIN TEMP:  51; 6HR MAX TEMP:  74;

ABILENE        CLEAR     56  40  55 SE10      29.87F
6HR MIN TEMP:  54; 6HR MAX TEMP:  73;

ABILENE-DYESS  CLEAR     57  40  54 S7        29.86F
6HR MIN TEMP:  51; 6HR MAX TEMP:  75;

GRAHAM         PTCLDY    54  44  68 E3        29.86F
6HR MIN TEMP:  52; 6HR MAX TEMP:  71;

BRECKENRIDGE   PTCLDY    57  41  54 SE9       29.88F
6HR MIN TEMP:  57; 6HR MAX TEMP:  73;

CISCO          CLEAR     54  41  62 SE9       29.91S
RANGER         PTCLDY    50  41  71 CALM      29.90F
MINERAL WELLS  CLEAR     52  43  71 S9        29.88F
6HR MIN TEMP:  49; 6HR MAX TEMP:  71;

STEPHENVILLE   CLEAR     54  42  65 S6        29.94S
6HR MIN TEMP:  54; 6HR MAX TEMP:  73;

COMANCHE       PTCLDY    55  44  66 SE5       29.92S
6HR MIN TEMP:  55; 6HR MAX TEMP:  74;

BROWNWOOD      CLEAR     52  45  76 CALM      29.91S
COLEMAN        CLEAR     57  40  53 SE6       29.91S
6HR MIN TEMP:  54; 6HR MAX TEMP:  76;

$$

TXZ143>147-156>162-174-175-260700-
CENTRAL TEXAS

CITY           SKY/WX    TMP DP  RH WIND       PRES   REMARKS
WACO           CLEAR     54  50  86 E5        29.91F
6HR MIN TEMP:  52; 6HR MAX TEMP:  75;

WACO-MCGREGOR  CLEAR     56  49  77 CALM      29.92F
6HR MIN TEMP:  56; 6HR MAX TEMP:  74;

HILLSBORO      CLEAR     59  48  67 E8        29.92S
6HR MIN TEMP:  59; 6HR MAX TEMP:  72;

CORSICANA      CLEAR     58  52  80 SE6       29.93F
6HR MIN TEMP:  56; 6HR MAX TEMP:  70;

MEXIA          CLEAR     55  49  78 CALM      29.92F
6HR MIN TEMP:  54; 6HR MAX TEMP:  70;

HEARNE         CLEAR     56  53  92 CALM      29.94S
6HR MIN TEMP:  54; 6HR MAX TEMP:  73;

CAMERON        CLEAR     61  50  67 SE5       29.92S
6HR MIN TEMP:  60; 6HR MAX TEMP:  74;

TEMPLE         CLEAR     59  50  72 SE6       29.92F
6HR MIN TEMP:  58; 6HR MAX TEMP:  73;

KILLEEN        CLEAR     60  49  66 SE6       29.90F
6HR MIN TEMP:  60; 6HR MAX TEMP:  76;

KILLEEN-SKYLRK CLEAR     61  50  67 SE7       29.92F
6HR MIN TEMP:  59; 6HR MAX TEMP:  76;

FORT HOOD      CLEAR     60  49  67 SE6       29.88F
6HR MIN TEMP:  58; 6HR MAX TEMP:  76;

GATESVILLE     CLEAR     57  48  72 SE5       29.93F
HAMILTON       CLEAR     55  46  72 S7        29.92F
6HR MIN TEMP:  55; 6HR MAX TEMP:  75;

LAMPASAS       CLEAR     58  49  73 CALM      29.91F
6HR MIN TEMP:  58; 6HR MAX TEMP:  76;

$$

TXZ095>097-106>112-122>126-135>138-148>153-164>167-260700-
EAST TEXAS

CITY           SKY/WX    TMP DP  RH WIND       PRES   REMARKS
PARIS          CLEAR     52  45  76 CALM      29.93S
6HR MIN TEMP:  52; 6HR MAX TEMP:  64;

SULPHUR SPRNGS CLEAR     53  50  91 CALM      29.95F
6HR MIN TEMP:  53; 6HR MAX TEMP:  66;

MOUNT PLEASANT CLEAR     51  51 100 CALM      29.95S
6HR MIN TEMP:  51; 6HR MAX TEMP:  68;

GILMER         CLEAR     51  50  95 CALM      29.94F
6HR MIN TEMP:  51; 6HR MAX TEMP:  68;

MINEOLA        CLEAR     50  48  93 CALM      29.93F
TYLER          CLEAR     54  52  93 S3        29.93F
6HR MIN TEMP:  53; 6HR MAX TEMP:  69;

LONGVIEW       CLEAR     54  53  97 CALM      29.94S
6HR MIN TEMP:  54; 6HR MAX TEMP:  70;

MARSHALL       CLEAR     50  48  93 CALM      29.96F
6HR MIN TEMP:  50; 6HR MAX TEMP:  70;

ATHENS         CLEAR     52  52 100 CALM      29.92F
PALESTINE      CLEAR     52  52  99 CALM      29.95S
JACKSONVILLE   CLEAR     59  50  72 CALM      29.96S
HENDERSON      CLEAR     51  51 100 CALM      29.95F
6HR MIN TEMP:  51; 6HR MAX TEMP:  69;

CENTER         CLEAR     56  55  95 CALM      29.96S
6HR MIN TEMP:  56; 6HR MAX TEMP:  76;

NACOGDOCHES    CLEAR     50  46  87 CALM      29.93F
6HR MIN TEMP:  50; 6HR MAX TEMP:  72;

LUFKIN         CLEAR     52  50  93 E3        29.94S
6HR MIN TEMP:  52; 6HR MAX TEMP:  72;

$$

SUPPLEMENTAL OBSERVATIONS (CENTRAL)

CITY           SKY/WX    TMP DP  RH WIND       PRES   REMARKS
D



USA.gov is the U.S. government's official web portal to all federal, state and local government web resources and services.